Jefferson, NC

4:08 PM EDT on April 20, 2018 (GMT -0400)
Ashe County

Weather History for KGEV - January, 2004

Change the Weather History Date:

Monday, January 5, 2004

  Actual Average Record
Temperature  
Mean Temperature 45 °F -  
Max Temperature 55 °F 43 °F 64 °F (2005)
Min Temperature 35 °F 23 °F -1 °F (1981)
Degree Days  
Heating Degree Days 20    
Moisture  
Dew Point 45 °F    
Average Humidity 82    
Maximum Humidity 94    
Minimum Humidity 70    
Precipitation  
Precipitation 0.09 in - - ()
Sea Level Pressure  
Sea Level Pressure 29.90 in    
Wind  
Wind Speed 7 mph (WSW)    
Max Wind Speed 25 mph    
Max Gust Speed 36 mph    
Visibility 10 miles    
Events Rain    
Averages and records for this station are not official NWS values.
T = Trace of Precipitation, MM = Missing Value Source: NWS Daily Summary

Daily Weather History Graph

Daily Weather History Graph

Search for Another Location

Airport or City:

Astronomy

Jan. 05, 2004 Rise Set
Actual Time 7:37 AM EST 5:24 PM EST
Civil Twilight 7:09 AM EST 5:52 PM EST
Nautical Twilight 6:37 AM EST 6:24 PM EST
Astronomical Twilight 6:05 AM EST 6:56 PM EST
Moon 3:39 PM EST (1/5) 6:07 AM EST (1/5)
Length of Visible Light 10h 43m
Length of Day
9h 46m
Waxing Gibbous, 97% of the Moon is Illuminated
Jan 5
Waxing Gibbous
Jan 7
Full
Jan 14
Last Quarter
Jan 21
New
Jan 29
First Quarter

Hourly Weather History & Observations

Time (EST) Temp. Windchill Dew Point Humidity Pressure Visibility Wind Dir Wind Speed Gust Speed Precip Events Conditions
12:01 AM 53.6 °F - 48.2 °F 82% 29.93 in - South 4.6 mph - N/A   Scattered Clouds
12:21 AM 53.6 °F - 48.2 °F 82% 29.93 in - Calm Calm - N/A   Scattered Clouds
12:41 AM 51.8 °F - 48.2 °F 88% 29.92 in - SE 3.5 mph - N/A   Overcast
1:01 AM 51.8 °F - 48.2 °F 88% 29.91 in - SSE 5.8 mph - N/A   Overcast
1:41 AM 53.6 °F - 48.2 °F 82% 29.90 in - South 4.6 mph - N/A   Scattered Clouds
2:01 AM 53.6 °F - 48.2 °F 82% 29.90 in - South 5.8 mph - N/A   Scattered Clouds
2:22 AM 53.6 °F - 48.2 °F 82% 29.90 in - SE 4.6 mph - N/A   Mostly Cloudy
2:41 AM 51.8 °F - 48.2 °F 88% 29.90 in - SSE 4.6 mph - N/A   Unknown
3:01 AM 53.6 °F - 48.2 °F 82% 29.90 in - Calm Calm - N/A   Unknown
3:21 AM 55.4 °F - 50.0 °F 82% 29.89 in - SSE 4.6 mph - N/A   Overcast
3:41 AM 55.4 °F - 51.8 °F 88% 29.90 in - SSE 3.5 mph - N/A   Unknown
4:02 AM 55.4 °F - 51.8 °F 88% 29.89 in - SSE 4.6 mph - N/A   Unknown
4:21 AM 55.4 °F - 51.8 °F 88% 29.89 in - Calm Calm - N/A   Unknown
4:41 AM 55.4 °F - 51.8 °F 88% 29.89 in - Calm Calm - N/A   Unknown
5:01 AM 55.4 °F - 51.8 °F 88% 29.88 in - SSE 3.5 mph - N/A   Unknown
5:21 AM 55.4 °F - 51.8 °F 88% 29.88 in - Calm Calm - N/A   Overcast
5:41 AM 55.4 °F - 50.0 °F 82% 29.88 in - Calm Calm - N/A   Overcast
6:01 AM 55.4 °F - 51.8 °F 88% 29.89 in - Calm Calm - N/A   Overcast
6:21 AM 55.4 °F - 51.8 °F 88% 29.88 in - Calm Calm - N/A   Unknown
6:41 AM 55.4 °F - 51.8 °F 88% 29.88 in - South 4.6 mph - N/A   Unknown
7:02 AM 55.4 °F - 51.8 °F 88% 29.87 in - South 3.5 mph - N/A   Unknown
7:21 AM 55.4 °F - 51.8 °F 88% 29.87 in - Calm Calm - N/A   Unknown
7:41 AM 55.4 °F - 53.6 °F 94% 29.87 in - SSE 3.5 mph - N/A   Unknown
8:01 AM 55.4 °F - 53.6 °F 94% 29.87 in - SSE 3.5 mph - N/A   Unknown
8:21 AM 55.4 °F - 53.6 °F 94% 29.87 in - SSE 3.5 mph - N/A   Unknown
8:41 AM 55.4 °F - 53.6 °F 94% 29.88 in - SSE 5.8 mph - N/A   Unknown
9:01 AM 55.4 °F - 51.8 °F 88% 29.89 in - SSE 5.8 mph - N/A   Unknown
9:21 AM 55.4 °F - 51.8 °F 88% 29.89 in - South 4.6 mph - N/A   Unknown
9:41 AM 55.4 °F - 53.6 °F 94% 29.89 in - SSE 3.5 mph - N/A   Unknown
10:01 AM 55.4 °F - 53.6 °F 94% 29.90 in - West 5.8 mph - 0.01 in   Overcast
10:21 AM 55.4 °F - 51.8 °F 88% 29.92 in - WNW 23.0 mph 29.9 mph 0.03 in   Unknown
10:41 AM 53.6 °F - 48.2 °F 82% 29.92 in - NW 9.2 mph 20.7 mph 0.04 in   Unknown
11:01 AM 53.6 °F - 48.2 °F 82% 29.90 in - WSW 4.6 mph - N/A   Overcast
11:21 AM 53.6 °F - 48.2 °F 82% 29.91 in - West 9.2 mph - 0.01 in Rain Light Rain
11:41 AM 53.6 °F - 48.2 °F 82% 29.92 in 4.0 mi West 12.7 mph 20.7 mph 0.02 in   Heavy Drizzle
12:01 PM 50.0 °F - 46.4 °F 87% 29.90 in 7.0 mi West 17.3 mph 29.9 mph 0.02 in Rain Rain
12:21 PM 50.0 °F - 46.4 °F 87% 29.87 in 10.0 mi West 3.5 mph - 0.03 in Rain Rain
12:41 PM 50.0 °F - 44.6 °F 82% 29.88 in 10.0 mi WNW 19.6 mph 31.1 mph 0.03 in Rain Light Rain
1:01 PM 50.0 °F - 44.6 °F 82% 29.90 in 10.0 mi West 6.9 mph 32.2 mph N/A   Drizzle
1:21 PM 50.0 °F - 44.6 °F 82% 29.87 in 10.0 mi West 9.2 mph 17.3 mph N/A   Drizzle
1:41 PM 50.0 °F - 44.6 °F 82% 29.86 in 10.0 mi West 9.2 mph 17.3 mph N/A Rain Light Rain
2:01 PM 51.8 °F - 44.6 °F 76% 29.85 in 10.0 mi West 12.7 mph 20.7 mph N/A   Scattered Clouds
2:21 PM 51.8 °F - 44.6 °F 76% 29.86 in 10.0 mi West 10.4 mph 18.4 mph N/A   Clear
2:41 PM 51.8 °F - 44.6 °F 76% 29.86 in 10.0 mi West 11.5 mph 21.9 mph N/A   Scattered Clouds
3:01 PM 51.8 °F - 44.6 °F 76% 29.87 in 10.0 mi WNW 12.7 mph 19.6 mph N/A   Scattered Clouds
3:21 PM 50.0 °F - 42.8 °F 76% 29.87 in 10.0 mi WNW 12.7 mph 23.0 mph N/A   Scattered Clouds
3:41 PM 50.0 °F - 42.8 °F 76% 29.88 in 10.0 mi WNW 9.2 mph 23.0 mph N/A   Mostly Cloudy
4:03 PM 50.0 °F - 42.8 °F 76% 29.88 in 10.0 mi West 16.1 mph 20.7 mph N/A   Scattered Clouds
4:21 PM 50.0 °F - 42.8 °F 76% 29.89 in 10.0 mi West 15.0 mph 21.9 mph N/A   Scattered Clouds
4:41 PM 50.0 °F - 41.0 °F 71% 29.89 in 10.0 mi West 25.3 mph 33.4 mph N/A   Mostly Cloudy
5:03 PM 48.2 °F - 39.2 °F 71% 29.90 in 10.0 mi West 19.6 mph 26.5 mph N/A   Mostly Cloudy
5:21 PM 44.6 °F 38.1 °F 39.2 °F 81% 29.92 in 10.0 mi WNW 13.8 mph 24.2 mph N/A   Overcast
5:41 PM 44.6 °F 37.2 °F 37.4 °F 76% 29.93 in 10.0 mi WNW 17.3 mph 31.1 mph N/A   Overcast
6:01 PM 42.8 °F 33.5 °F 35.6 °F 76% 29.93 in 10.0 mi WNW 23.0 mph 35.7 mph N/A   Mostly Cloudy
6:21 PM 42.8 °F 34.3 °F 33.8 °F 70% 29.93 in 10.0 mi WNW 19.6 mph 34.5 mph N/A   Mostly Cloudy
6:42 PM 41.0 °F 32.5 °F 33.8 °F 76% 29.95 in 10.0 mi WNW 17.3 mph 34.5 mph N/A   Mostly Cloudy
7:01 PM 41.0 °F 31.1 °F 33.8 °F 76% 29.95 in 10.0 mi WNW 23.0 mph 31.1 mph N/A   Mostly Cloudy
7:21 PM 39.2 °F 30.5 °F 30.2 °F 70% 29.96 in 10.0 mi WNW 16.1 mph 32.2 mph N/A   Mostly Cloudy
7:41 PM 39.2 °F 30.2 °F 30.2 °F 70% 29.96 in 10.0 mi West 17.3 mph 34.5 mph N/A   Scattered Clouds
8:01 PM 37.4 °F 26.4 °F 28.4 °F 70% 29.96 in 10.0 mi WNW 23.0 mph 33.4 mph N/A   Scattered Clouds
8:21 PM 37.4 °F 25.9 °F 28.4 °F 70% 29.97 in 10.0 mi WNW 25.3 mph 34.5 mph N/A   Mostly Cloudy
8:41 PM 37.4 °F 28.9 °F 30.2 °F 75% 29.99 in 10.0 mi West 13.8 mph 26.5 mph N/A   Overcast
9:01 PM 35.6 °F 25.5 °F 30.2 °F 81% 29.99 in 10.0 mi WNW 17.3 mph 26.5 mph N/A   Overcast
9:21 PM 35.6 °F 24.2 °F 28.4 °F 75% 29.99 in 10.0 mi WNW 21.9 mph 32.2 mph N/A   Overcast
9:41 PM 35.6 °F 25.5 °F 28.4 °F 75% 29.99 in 10.0 mi WNW 17.3 mph 35.7 mph N/A   Overcast
10:01 PM 35.6 °F 23.7 °F 28.4 °F 75% 29.99 in 10.0 mi WNW 24.2 mph 33.4 mph N/A   Overcast
10:21 PM 35.6 °F 23.4 °F 28.4 °F 75% 30.00 in 10.0 mi WNW 25.3 mph 31.1 mph N/A   Overcast
10:41 PM 32.0 °F 23.0 °F 26.6 °F 80% 30.01 in 5.0 mi WNW 11.5 mph 28.8 mph N/A   Haze
11:02 PM 32.0 °F 22.1 °F 26.6 °F 80% 30.01 in 3.0 mi WNW 13.8 mph 21.9 mph N/A Snow Light Snow
11:21 PM 32.0 °F 22.1 °F 24.8 °F 75% 30.02 in 5.0 mi NW 13.8 mph 27.6 mph N/A   Haze
11:41 PM 30.2 °F 21.3 °F 26.6 °F 86% 30.03 in 2.0 mi WNW 10.4 mph 18.4 mph N/A Snow Light Snow